Time,TemperatureF,DewpointF,PressureIn,WindDirection,WindDirectionDegrees,WindSpeedMPH,WindSpeedGustMPH,Humidity,HourlyPrecipIn,Conditions,Clouds,dailyrainin,SoftwareType,DateUTC
2013-05-23 00:00:00,80.0,72.1,29.84,ESE,119,1.0,1.0,77,0.00,,,0.00,WeatherCatV1.13B119,2013-05-23 05:00:00,
2013-05-23 00:05:00,79.9,72.0,29.84,SE,124,1.0,1.0,77,0.00,,,0.00,WeatherCatV1.13B119,2013-05-23 05:05:00,
2013-05-23 00:10:00,79.9,72.0,29.84,ESE,112,0.0,1.0,77,0.00,,,0.00,WeatherCatV1.13B119,2013-05-23 05:10:00,
2013-05-23 00:15:00,79.6,72.1,29.84,SE,139,0.0,4.0,78,0.00,,,0.00,WeatherCatV1.13B119,2013-05-23 05:15:00,
2013-05-23 00:20:00,79.6,72.1,29.84,SE,143,1.0,3.0,78,0.00,,,0.00,WeatherCatV1.13B119,2013-05-23 05:20:00,
2013-05-23 00:25:00,79.7,72.2,29.84,SSE,162,1.0,5.0,78,0.00,,,0.00,WeatherCatV1.13B119,2013-05-23 05:25:00,
2013-05-23 00:30:00,79.6,72.1,29.84,South,173,1.0,2.0,78,0.00,,,0.00,WeatherCatV1.13B119,2013-05-23 05:30:00,
2013-05-23 00:35:00,79.4,72.3,29.84,South,170,1.0,0.0,79,0.00,,,0.00,WeatherCatV1.13B119,2013-05-23 05:35:00,
2013-05-23 00:40:00,79.2,72.1,29.84,SSE,164,0.0,1.0,79,0.00,,,0.00,WeatherCatV1.13B119,2013-05-23 05:40:00,
2013-05-23 00:45:00,79.0,72.3,29.84,SSE,161,0.0,2.0,80,0.00,,,0.00,WeatherCatV1.13B119,2013-05-23 05:45:00,
2013-05-23 00:50:00,78.9,72.2,29.84,South,183,0.0,2.0,80,0.00,,,0.00,WeatherCatV1.13B119,2013-05-23 05:50:00,
2013-05-23 00:55:00,78.9,72.2,29.84,South,169,0.0,1.0,80,0.00,,,0.00,WeatherCatV1.13B119,2013-05-23 05:55:00,
2013-05-23 01:00:00,78.8,72.5,29.84,SSE,164,1.0,3.0,81,0.00,,,0.00,WeatherCatV1.13B119,2013-05-23 06:00:00,
2013-05-23 01:05:00,78.6,72.3,29.84,SSE,150,1.0,3.0,81,0.00,,,0.00,WeatherCatV1.13B119,2013-05-23 06:05:00,
2013-05-23 01:10:00,78.5,72.2,29.84,SE,146,1.0,2.0,81,0.00,,,0.00,WeatherCatV1.13B119,2013-05-23 06:10:00,
2013-05-23 01:15:00,78.4,72.4,29.84,SE,135,1.0,2.0,82,0.00,,,0.00,WeatherCatV1.13B119,2013-05-23 06:15:00,
2013-05-23 01:20:00,78.3,72.3,29.84,SE,146,0.0,1.0,82,0.00,,,0.00,WeatherCatV1.13B119,2013-05-23 06:20:00,
2013-05-23 01:25:00,78.1,72.1,29.84,SE,136,0.0,0.0,82,0.00,,,0.00,WeatherCatV1.13B119,2013-05-23 06:25:00,
2013-05-23 01:30:00,77.9,72.3,29.84,SE,133,0.0,1.0,83,0.00,,,0.00,WeatherCatV1.13B119,2013-05-23 06:30:00,
2013-05-23 01:35:00,77.8,72.2,29.84,SE,133,0.0,0.0,83,0.00,,,0.00,WeatherCatV1.13B119,2013-05-23 06:35:00,
2013-05-23 01:40:00,77.6,72.4,29.84,SE,133,0.0,0.0,84,0.00,,,0.00,WeatherCatV1.13B119,2013-05-23 06:40:00,
2013-05-23 01:45:00,77.4,72.2,29.84,South,185,0.0,0.0,84,0.00,,,0.00,WeatherCatV1.13B119,2013-05-23 06:45:00,
2013-05-23 01:50:00,77.3,72.1,29.84,SE,134,0.0,0.0,84,0.00,,,0.00,WeatherCatV1.13B119,2013-05-23 06:50:00,
2013-05-23 01:55:00,77.2,72.0,29.83,SE,130,0.0,2.0,84,0.00,,,0.00,WeatherCatV1.13B119,2013-05-23 06:55:00,
2013-05-23 02:00:00,77.0,72.1,29.83,SE,144,0.0,1.0,85,0.00,,,0.00,WeatherCatV1.13B119,2013-05-23 07:00:00,
2013-05-23 02:05:00,76.8,71.9,29.83,SSE,147,0.0,0.0,85,0.00,,,0.00,WeatherCatV1.13B119,2013-05-23 07:05:00,
2013-05-23 02:10:00,76.7,72.2,29.83,South,172,0.0,1.0,86,0.00,,,0.00,WeatherCatV1.13B119,2013-05-23 07:10:00,
2013-05-23 02:15:00,76.6,72.1,29.83,SE,136,0.0,2.0,86,0.00,,,0.00,WeatherCatV1.13B119,2013-05-23 07:15:00,
2013-05-23 02:20:00,76.6,72.1,29.83,ESE,118,0.0,2.0,86,0.00,,,0.00,WeatherCatV1.13B119,2013-05-23 07:20:00,
2013-05-23 02:25:00,76.4,71.9,29.83,ESE,108,0.0,1.0,86,0.00,,,0.00,WeatherCatV1.13B119,2013-05-23 07:25:00,
2013-05-23 02:30:00,76.3,72.1,29.83,ESE,111,0.0,0.0,87,0.00,,,0.00,WeatherCatV1.13B119,2013-05-23 07:30:00,
2013-05-23 02:35:00,76.2,72.0,29.83,ESE,113,0.0,0.0,87,0.00,,,0.00,WeatherCatV1.13B119,2013-05-23 07:35:00,
2013-05-23 02:40:00,75.9,71.7,29.83,ESE,116,0.0,0.0,87,0.00,,,0.00,WeatherCatV1.13B119,2013-05-23 07:40:00,
2013-05-23 02:45:00,75.9,71.7,29.83,ESE,115,0.0,0.0,87,0.00,,,0.00,WeatherCatV1.13B119,2013-05-23 07:45:00,
2013-05-23 02:50:00,75.9,71.7,29.83,ESE,113,0.0,0.0,87,0.00,,,0.00,WeatherCatV1.13B119,2013-05-23 07:50:00,
2013-05-23 02:55:00,75.8,71.6,29.84,ESE,119,0.0,0.0,87,0.00,,,0.00,WeatherCatV1.13B119,2013-05-23 07:55:00,
2013-05-23 03:00:00,75.6,71.4,29.84,ESE,120,0.0,3.0,87,0.00,,,0.00,WeatherCatV1.13B119,2013-05-23 08:00:00,
2013-05-23 03:05:00,75.6,71.4,29.83,ESE,116,0.0,0.0,87,0.00,,,0.00,WeatherCatV1.13B119,2013-05-23 08:05:00,
2013-05-23 03:10:00,75.6,71.4,29.83,ESE,120,1.0,2.0,87,0.00,,,0.00,WeatherCatV1.13B119,2013-05-23 08:10:00,
2013-05-23 03:15:00,75.4,71.6,29.84,ESE,119,1.0,0.0,88,0.00,,,0.00,WeatherCatV1.13B119,2013-05-23 08:15:00,
2013-05-23 03:20:00,75.3,71.5,29.84,ESE,120,0.0,1.0,88,0.00,,,0.00,WeatherCatV1.13B119,2013-05-23 08:20:00,
2013-05-23 03:25:00,75.2,71.7,29.84,SE,124,0.0,0.0,89,0.00,,,0.00,WeatherCatV1.13B119,2013-05-23 08:25:00,
2013-05-23 03:30:00,75.1,71.6,29.84,ESE,115,0.0,1.0,89,0.00,,,0.00,WeatherCatV1.13B119,2013-05-23 08:30:00,
2013-05-23 03:35:00,75.0,71.5,29.84,ESE,116,0.0,0.0,89,0.00,,,0.00,WeatherCatV1.13B119,2013-05-23 08:35:00,
2013-05-23 03:40:00,74.9,71.8,29.83,ESE,118,0.0,2.0,90,0.00,,,0.00,WeatherCatV1.13B119,2013-05-23 08:40:00,
2013-05-23 03:45:00,74.7,71.6,29.84,ESE,121,1.0,2.0,90,0.00,,,0.00,WeatherCatV1.13B119,2013-05-23 08:45:00,
2013-05-23 03:50:00,74.6,71.5,29.84,ESE,123,1.0,0.0,90,0.00,,,0.00,WeatherCatV1.13B119,2013-05-23 08:50:00,
2013-05-23 03:55:00,74.5,71.4,29.84,ESE,120,0.0,3.0,90,0.00,,,0.00,WeatherCatV1.13B119,2013-05-23 08:55:00,
2013-05-23 04:00:00,74.5,71.4,29.84,ESE,121,1.0,3.0,90,0.00,,,0.00,WeatherCatV1.13B119,2013-05-23 09:00:00,
2013-05-23 04:05:00,74.7,71.2,29.84,SSE,152,1.0,5.0,89,0.00,,,0.00,WeatherCatV1.13B119,2013-05-23 09:05:00,
2013-05-23 04:10:00,74.7,71.2,29.84,SSE,152,1.0,5.0,89,0.00,,,0.00,WeatherCatV1.13B119,2013-05-23 09:10:00,
2013-05-23 04:15:00,74.7,71.2,29.84,SSE,155,2.0,2.0,89,0.00,,,0.00,WeatherCatV1.13B119,2013-05-23 09:15:00,
2013-05-23 04:20:00,74.8,71.3,29.84,SE,137,1.0,2.0,89,0.00,,,0.00,WeatherCatV1.13B119,2013-05-23 09:20:00,
2013-05-23 04:25:00,74.8,71.0,29.85,SE,137,1.0,2.0,88,0.00,,,0.00,WeatherCatV1.13B119,2013-05-23 09:25:00,
2013-05-23 04:30:00,74.9,71.1,29.84,SSE,152,1.0,3.0,88,0.00,,,0.00,WeatherCatV1.13B119,2013-05-23 09:30:00,
2013-05-23 04:35:00,75.0,71.2,29.85,SE,134,1.0,2.0,88,0.00,,,0.00,WeatherCatV1.13B119,2013-05-23 09:35:00,
2013-05-23 04:40:00,75.0,70.9,29.84,SE,146,1.0,2.0,87,0.00,,,0.00,WeatherCatV1.13B119,2013-05-23 09:40:00,
2013-05-23 04:45:00,75.1,71.0,29.84,SSE,152,1.0,4.0,87,0.00,,,0.00,WeatherCatV1.13B119,2013-05-23 09:45:00,
2013-05-23 04:50:00,75.1,70.6,29.85,SSE,159,2.0,7.0,86,0.00,,,0.00,WeatherCatV1.13B119,2013-05-23 09:50:00,
2013-05-23 04:55:00,75.2,70.7,29.85,SSE,164,2.0,4.0,86,0.00,,,0.00,WeatherCatV1.13B119,2013-05-23 09:55:00,
2013-05-23 05:00:00,75.2,70.7,29.84,SSE,157,1.0,3.0,86,0.00,,,0.00,WeatherCatV1.13B119,2013-05-23 10:00:00,
2013-05-23 05:05:00,75.2,70.7,29.84,South,173,1.0,2.0,86,0.00,,,0.00,WeatherCatV1.13B119,2013-05-23 10:05:00,
2013-05-23 05:10:00,75.2,70.7,29.84,SE,144,0.0,1.0,86,0.00,,,0.00,WeatherCatV1.13B119,2013-05-23 10:10:00,
2013-05-23 05:15:00,75.3,71.2,29.85,SE,141,0.0,0.0,87,0.00,,,0.00,WeatherCatV1.13B119,2013-05-23 10:15:00,
2013-05-23 05:20:00,75.2,71.1,29.85,SE,137,0.0,0.0,87,0.00,,,0.00,WeatherCatV1.13B119,2013-05-23 10:20:00,
2013-05-23 05:25:00,75.2,71.1,29.85,SE,130,0.0,3.0,87,0.00,,,0.00,WeatherCatV1.13B119,2013-05-23 10:25:00,
2013-05-23 05:30:00,75.2,71.1,29.85,SE,132,0.0,1.0,87,0.00,,,0.00,WeatherCatV1.13B119,2013-05-23 10:30:00,
2013-05-23 05:35:00,75.1,70.6,29.85,SE,136,0.0,3.0,86,0.00,,,0.00,WeatherCatV1.13B119,2013-05-23 10:35:00,
2013-05-23 05:40:00,75.2,70.7,29.85,SE,124,1.0,1.0,86,0.00,,,0.00,WeatherCatV1.13B119,2013-05-23 10:40:00,
2013-05-23 05:45:00,75.0,70.5,29.84,SE,126,1.0,3.0,86,0.00,,,0.00,WeatherCatV1.13B119,2013-05-23 10:45:00,
2013-05-23 05:50:00,75.0,70.5,29.84,SE,126,1.0,3.0,86,0.00,,,0.00,WeatherCatV1.13B119,2013-05-23 10:50:00,
2013-05-23 05:55:00,75.0,70.5,29.85,SE,144,1.0,3.0,86,0.00,,,0.00,WeatherCatV1.13B119,2013-05-23 10:55:00,
2013-05-23 06:00:00,75.0,70.5,29.85,SE,144,1.0,3.0,86,0.00,,,0.00,WeatherCatV1.13B119,2013-05-23 11:00:00,
2013-05-23 06:05:00,75.0,70.5,29.85,SE,129,1.0,4.0,86,0.00,,,0.00,WeatherCatV1.13B119,2013-05-23 11:05:00,
2013-05-23 06:10:00,75.1,70.6,29.85,SE,126,2.0,3.0,86,0.00,,,0.00,WeatherCatV1.13B119,2013-05-23 11:10:00,
2013-05-23 06:15:00,75.1,70.6,29.86,ESE,120,2.0,4.0,86,0.00,,,0.00,WeatherCatV1.13B119,2013-05-23 11:15:00,
2013-05-23 06:20:00,75.1,70.6,29.86,ESE,117,2.0,4.0,86,0.00,,,0.00,WeatherCatV1.13B119,2013-05-23 11:20:00,
2013-05-23 06:25:00,75.2,70.4,29.86,ESE,122,2.0,3.0,85,0.00,,,0.00,WeatherCatV1.13B119,2013-05-23 11:25:00,
2013-05-23 06:30:00,75.2,70.4,29.86,SE,128,2.0,5.0,85,0.00,,,0.00,WeatherCatV1.13B119,2013-05-23 11:30:00,
2013-05-23 06:35:00,75.1,70.6,29.86,ESE,117,2.0,2.0,86,0.00,,,0.00,WeatherCatV1.13B119,2013-05-23 11:35:00,
2013-05-23 06:40:00,75.1,70.6,29.86,ESE,117,1.0,3.0,86,0.00,,,0.00,WeatherCatV1.13B119,2013-05-23 11:40:00,
2013-05-23 06:45:00,75.1,70.3,29.86,ESE,123,2.0,6.0,85,0.00,,,0.00,WeatherCatV1.13B119,2013-05-23 11:45:00,
2013-05-23 06:50:00,75.1,70.3,29.86,ESE,123,2.0,6.0,85,0.00,,,0.00,WeatherCatV1.13B119,2013-05-23 11:50:00,
2013-05-23 06:55:00,75.1,70.3,29.87,SE,124,2.0,4.0,85,0.00,,,0.00,WeatherCatV1.13B119,2013-05-23 11:55:00,
2013-05-23 07:00:00,75.1,70.3,29.87,SE,134,2.0,4.0,85,0.00,,,0.00,WeatherCatV1.13B119,2013-05-23 12:00:00,
2013-05-23 07:05:00,75.1,70.3,29.87,SE,127,2.0,3.0,85,0.00,,,0.00,WeatherCatV1.13B119,2013-05-23 12:05:00,
2013-05-23 07:10:00,75.2,70.4,29.87,SE,126,2.0,3.0,85,0.00,,,0.00,WeatherCatV1.13B119,2013-05-23 12:10:00,
2013-05-23 07:15:00,75.3,70.5,29.87,ESE,122,1.0,2.0,85,0.00,,,0.00,WeatherCatV1.13B119,2013-05-23 12:15:00,
2013-05-23 07:20:00,75.3,70.5,29.87,ESE,121,1.0,4.0,85,0.00,,,0.00,WeatherCatV1.13B119,2013-05-23 12:20:00,
2013-05-23 07:25:00,75.2,70.0,29.87,SE,124,1.0,3.0,84,0.00,,,0.00,WeatherCatV1.13B119,2013-05-23 12:25:00,
2013-05-23 07:30:00,75.2,70.0,29.87,SSE,152,2.0,5.0,84,0.00,,,0.00,WeatherCatV1.13B119,2013-05-23 12:30:00,
2013-05-23 07:35:00,75.3,70.1,29.88,SSE,163,2.0,5.0,84,0.00,,,0.00,WeatherCatV1.13B119,2013-05-23 12:35:00,
2013-05-23 07:40:00,75.3,70.1,29.88,SSE,152,2.0,8.0,84,0.00,,,0.00,WeatherCatV1.13B119,2013-05-23 12:40:00,
2013-05-23 07:45:00,75.4,69.9,29.89,SSE,151,2.0,5.0,83,0.00,,,0.00,WeatherCatV1.13B119,2013-05-23 12:45:00,
2013-05-23 07:50:00,75.5,70.0,29.89,SSE,158,2.0,8.0,83,0.00,,,0.00,WeatherCatV1.13B119,2013-05-23 12:50:00,
2013-05-23 07:55:00,75.6,70.4,29.89,SSE,153,2.0,3.0,84,0.00,,,0.00,WeatherCatV1.13B119,2013-05-23 12:55:00,
2013-05-23 08:00:00,75.6,70.1,29.89,SSE,157,2.0,5.0,83,0.00,,,0.00,WeatherCatV1.13B119,2013-05-23 13:00:00,
2013-05-23 08:05:00,75.7,70.2,29.90,SSE,148,1.0,3.0,83,0.00,,,0.00,WeatherCatV1.13B119,2013-05-23 13:05:00,
2013-05-23 08:10:00,75.8,70.3,29.90,SSE,160,1.0,4.0,83,0.00,,,0.00,WeatherCatV1.13B119,2013-05-23 13:10:00,
2013-05-23 08:15:00,75.9,70.4,29.89,SSE,166,2.0,4.0,83,0.00,,,0.00,WeatherCatV1.13B119,2013-05-23 13:15:00,
2013-05-23 08:20:00,75.9,70.7,29.89,SE,143,2.0,3.0,84,0.00,,,0.00,WeatherCatV1.13B119,2013-05-23 13:20:00,
2013-05-23 08:25:00,76.1,70.9,29.90,SSE,157,1.0,5.0,84,0.00,,,0.00,WeatherCatV1.13B119,2013-05-23 13:25:00,
2013-05-23 08:30:00,76.2,70.6,29.90,SSE,149,1.0,5.0,83,0.00,,,0.00,WeatherCatV1.13B119,2013-05-23 13:30:00,
2013-05-23 08:35:00,76.3,70.4,29.90,SSE,158,2.0,9.0,82,0.00,,,0.00,WeatherCatV1.13B119,2013-05-23 13:35:00,
2013-05-23 08:40:00,76.3,70.4,29.90,SSE,162,3.0,5.0,82,0.00,,,0.00,WeatherCatV1.13B119,2013-05-23 13:40:00,
2013-05-23 08:45:00,76.5,70.6,29.90,SSE,160,3.0,7.0,82,0.00,,,0.00,WeatherCatV1.13B119,2013-05-23 13:45:00,
2013-05-23 08:50:00,76.6,70.7,29.90,SSE,158,3.0,3.0,82,0.00,,,0.00,WeatherCatV1.13B119,2013-05-23 13:50:00,
2013-05-23 08:55:00,76.9,70.6,29.91,SE,145,2.0,5.0,81,0.00,,,0.00,WeatherCatV1.13B119,2013-05-23 13:55:00,
2013-05-23 09:00:00,77.0,70.7,29.91,SSE,156,2.0,6.0,81,0.00,,,0.00,WeatherCatV1.13B119,2013-05-23 14:00:00,
2013-05-23 09:05:00,77.1,70.4,29.90,SSE,166,3.0,8.0,80,0.00,,,0.00,WeatherCatV1.13B119,2013-05-23 14:05:00,
2013-05-23 09:10:00,77.2,70.5,29.90,SSE,166,3.0,7.0,80,0.00,,,0.00,WeatherCatV1.13B119,2013-05-23 14:10:00,
2013-05-23 09:15:00,77.3,70.6,29.90,South,171,3.0,6.0,80,0.00,,,0.00,WeatherCatV1.13B119,2013-05-23 14:15:00,
2013-05-23 09:20:00,77.4,70.7,29.90,South,176,3.0,13.0,80,0.00,,,0.00,WeatherCatV1.13B119,2013-05-23 14:20:00,
2013-05-23 09:25:00,77.5,70.5,29.91,South,174,3.0,9.0,79,0.00,,,0.00,WeatherCatV1.13B119,2013-05-23 14:25:00,
2013-05-23 09:30:00,77.5,70.5,29.91,South,175,4.0,10.0,79,0.00,,,0.00,WeatherCatV1.13B119,2013-05-23 14:30:00,
2013-05-23 09:35:00,77.7,70.3,29.91,South,177,4.0,11.0,78,0.00,,,0.00,WeatherCatV1.13B119,2013-05-23 14:35:00,
2013-05-23 09:40:00,78.0,70.6,29.91,SSE,166,4.0,8.0,78,0.00,,,0.00,WeatherCatV1.13B119,2013-05-23 14:40:00,
2013-05-23 09:45:00,78.3,70.9,29.91,SSE,155,3.0,8.0,78,0.00,,,0.00,WeatherCatV1.13B119,2013-05-23 14:45:00,
2013-05-23 09:50:00,78.5,71.1,29.91,SSE,151,3.0,3.0,78,0.00,,,0.00,WeatherCatV1.13B119,2013-05-23 14:50:00,
2013-05-23 09:55:00,78.7,70.9,29.91,SSE,162,3.0,7.0,77,0.00,,,0.00,WeatherCatV1.13B119,2013-05-23 14:55:00,
2013-05-23 10:00:00,78.9,71.1,29.92,SSE,162,3.0,3.0,77,0.00,,,0.00,WeatherCatV1.13B119,2013-05-23 15:00:00,
2013-05-23 10:05:00,79.2,71.0,29.91,SSE,157,2.0,6.0,76,0.00,,,0.00,WeatherCatV1.13B119,2013-05-23 15:05:00,
2013-05-23 10:10:00,79.2,71.0,29.92,South,180,3.0,6.0,76,0.00,,,0.00,WeatherCatV1.13B119,2013-05-23 15:10:00,
2013-05-23 10:15:00,79.1,70.9,29.92,South,169,4.0,8.0,76,0.00,,,0.00,WeatherCatV1.13B119,2013-05-23 15:15:00,
2013-05-23 10:20:00,79.2,71.0,29.92,South,170,4.0,7.0,76,0.00,,,0.00,WeatherCatV1.13B119,2013-05-23 15:20:00,
2013-05-23 10:25:00,79.8,70.4,29.92,South,171,3.0,5.0,73,0.00,,,0.00,WeatherCatV1.13B119,2013-05-23 15:25:00,
2013-05-23 10:30:00,80.2,70.7,29.92,SSE,162,3.0,7.0,73,0.00,,,0.00,WeatherCatV1.13B119,2013-05-23 15:30:00,
2013-05-23 10:35:00,80.4,70.9,29.91,South,169,3.0,9.0,73,0.00,,,0.00,WeatherCatV1.13B119,2013-05-23 15:35:00,
2013-05-23 10:40:00,80.6,71.1,29.91,SSE,159,3.0,4.0,73,0.00,,,0.00,WeatherCatV1.13B119,2013-05-23 15:40:00,
2013-05-23 10:45:00,81.4,71.9,29.91,SSE,154,3.0,4.0,73,0.00,,,0.00,WeatherCatV1.13B119,2013-05-23 15:45:00,
2013-05-23 10:50:00,82.1,71.7,29.91,SSE,148,3.0,5.0,71,0.00,,,0.00,WeatherCatV1.13B119,2013-05-23 15:50:00,
2013-05-23 10:55:00,82.3,71.5,29.91,SSE,155,3.0,5.0,70,0.00,,,0.00,WeatherCatV1.13B119,2013-05-23 15:55:00,
2013-05-23 11:00:00,83.2,71.5,29.92,SSE,165,3.0,5.0,68,0.00,,,0.00,WeatherCatV1.13B119,2013-05-23 16:00:00,
2013-05-23 11:05:00,83.7,71.5,29.92,SSE,168,3.0,7.0,67,0.00,,,0.00,WeatherCatV1.13B119,2013-05-23 16:05:00,
2013-05-23 11:10:00,83.7,71.1,29.91,SE,145,4.0,5.0,66,0.00,,,0.00,WeatherCatV1.13B119,2013-05-23 16:10:00,
2013-05-23 11:15:00,83.8,71.6,29.92,SE,142,3.0,4.0,67,0.00,,,0.00,WeatherCatV1.13B119,2013-05-23 16:15:00,
2013-05-23 11:20:00,83.6,71.5,29.92,SE,133,3.0,4.0,67,0.00,,,0.00,WeatherCatV1.13B119,2013-05-23 16:20:00,
2013-05-23 11:31:00,83.9,71.3,29.92,SSE,150,3.0,7.0,66,0.00,,,0.00,WeatherCatV1.13B119,2013-05-23 16:31:00,
2013-05-23 11:36:00,84.2,71.6,29.92,SSW,201,1.0,3.0,66,0.00,,,0.00,WeatherCatV1.13B119,2013-05-23 16:36:00,
2013-05-23 11:41:00,84.5,71.9,29.92,ESE,104,1.0,4.0,66,0.00,,,0.00,WeatherCatV1.13B119,2013-05-23 16:41:00,
2013-05-23 11:46:00,84.6,71.5,29.92,East,86,2.0,4.0,65,0.00,,,0.00,WeatherCatV1.13B119,2013-05-23 16:46:00,
2013-05-23 11:51:00,85.0,71.9,29.92,SE,140,1.0,3.0,65,0.00,,,0.00,WeatherCatV1.13B119,2013-05-23 16:51:00,
2013-05-23 11:56:00,85.1,71.1,29.92,SE,124,4.0,10.0,63,0.00,,,0.00,WeatherCatV1.13B119,2013-05-23 16:56:00,
2013-05-23 12:01:00,85.0,71.4,29.92,SSE,164,1.0,5.0,64,0.00,,,0.00,WeatherCatV1.13B119,2013-05-23 17:01:00,
2013-05-23 12:06:00,84.9,71.3,29.92,SE,146,2.0,5.0,64,0.00,,,0.00,WeatherCatV1.13B119,2013-05-23 17:06:00,
2013-05-23 12:11:00,85.0,72.3,29.92,ESE,115,2.0,3.0,66,0.00,,,0.00,WeatherCatV1.13B119,2013-05-23 17:11:00,
2013-05-23 12:16:00,85.1,71.5,29.92,ESE,120,2.0,5.0,64,0.00,,,0.00,WeatherCatV1.13B119,2013-05-23 17:16:00,
2013-05-23 12:21:00,85.5,71.0,29.92,SSW,195,3.0,8.0,62,0.00,,,0.00,WeatherCatV1.13B119,2013-05-23 17:21:00,
2013-05-23 12:26:00,85.5,71.9,29.92,East,97,1.0,8.0,64,0.00,,,0.00,WeatherCatV1.13B119,2013-05-23 17:26:00,
2013-05-23 12:31:00,85.7,71.6,29.92,SSE,155,2.0,4.0,63,0.00,,,0.00,WeatherCatV1.13B119,2013-05-23 17:31:00,
2013-05-23 12:36:00,86.0,72.4,29.92,SSE,150,2.0,5.0,64,0.00,,,0.00,WeatherCatV1.13B119,2013-05-23 17:36:00,
2013-05-23 12:41:00,86.4,71.8,29.92,SE,134,2.0,5.0,62,0.00,,,0.00,WeatherCatV1.13B119,2013-05-23 17:41:00,
2013-05-23 12:46:00,86.5,72.4,29.92,SSE,154,1.0,6.0,63,0.00,,,0.00,WeatherCatV1.13B119,2013-05-23 17:46:00,
2013-05-23 12:51:00,86.6,71.0,29.92,East,96,5.0,9.0,60,0.00,,,0.00,WeatherCatV1.13B119,2013-05-23 17:51:00,
2013-05-23 12:56:00,86.4,72.3,29.92,SE,146,1.0,6.0,63,0.00,,,0.00,WeatherCatV1.13B119,2013-05-23 17:56:00,
2013-05-23 13:01:00,86.4,71.3,29.92,SSE,155,2.0,5.0,61,0.00,,,0.00,WeatherCatV1.13B119,2013-05-23 18:01:00,
2013-05-23 13:06:00,86.6,71.5,29.92,ESE,108,1.0,2.0,61,0.00,,,0.00,WeatherCatV1.13B119,2013-05-23 18:06:00,
2013-05-23 13:11:00,86.8,71.2,29.92,SW,214,1.0,5.0,60,0.00,,,0.00,WeatherCatV1.13B119,2013-05-23 18:11:00,
2013-05-23 13:16:00,86.6,71.5,29.92,SSE,153,2.0,3.0,61,0.00,,,0.00,WeatherCatV1.13B119,2013-05-23 18:16:00,
2013-05-23 13:21:00,86.5,70.9,29.92,SW,216,3.0,8.0,60,0.00,,,0.00,WeatherCatV1.13B119,2013-05-23 18:21:00,
2013-05-23 13:26:00,86.2,71.1,29.92,SE,146,1.0,4.0,61,0.00,,,0.00,WeatherCatV1.13B119,2013-05-23 18:26:00,
2013-05-23 13:31:00,85.9,71.3,29.92,SE,146,3.0,6.0,62,0.00,,,0.00,WeatherCatV1.13B119,2013-05-23 18:31:00,
2013-05-23 13:36:00,86.0,71.4,29.92,ESE,108,4.0,5.0,62,0.00,,,0.00,WeatherCatV1.13B119,2013-05-23 18:36:00,
2013-05-23 13:41:00,85.9,71.3,29.92,SSE,161,3.0,6.0,62,0.00,,,0.00,WeatherCatV1.13B119,2013-05-23 18:41:00,
2013-05-23 13:46:00,85.8,71.2,29.92,ESE,113,1.0,4.0,62,0.00,,,0.00,WeatherCatV1.13B119,2013-05-23 18:46:00,
2013-05-23 13:51:00,85.9,71.8,29.92,SSE,155,3.0,5.0,63,0.00,,,0.00,WeatherCatV1.13B119,2013-05-23 18:51:00,
2013-05-23 13:56:00,86.0,71.9,29.92,SE,136,2.0,4.0,63,0.00,,,0.00,WeatherCatV1.13B119,2013-05-23 18:56:00,
2013-05-23 14:01:00,86.2,71.6,29.91,ESE,111,3.0,5.0,62,0.00,,,0.00,WeatherCatV1.13B119,2013-05-23 19:01:00,
2013-05-23 14:06:00,85.6,71.1,29.92,ESE,114,2.0,7.0,62,0.00,,,0.00,WeatherCatV1.13B119,2013-05-23 19:06:00,
2013-05-23 14:11:00,85.3,71.7,29.91,ESE,110,2.0,3.0,64,0.00,,,0.00,WeatherCatV1.13B119,2013-05-23 19:11:00,
2013-05-23 14:16:00,85.3,71.2,29.92,SE,129,3.0,6.0,63,0.00,,,0.00,WeatherCatV1.13B119,2013-05-23 19:16:00,
2013-05-23 14:21:00,84.9,71.3,29.92,ESE,103,2.0,5.0,64,0.00,,,0.00,WeatherCatV1.13B119,2013-05-23 19:21:00,
2013-05-23 14:26:00,84.7,71.1,29.92,SE,129,1.0,4.0,64,0.00,,,0.00,WeatherCatV1.13B119,2013-05-23 19:26:00,
2013-05-23 14:31:00,84.7,71.1,29.91,SE,124,1.0,7.0,64,0.00,,,0.00,WeatherCatV1.13B119,2013-05-23 19:31:00,
2013-05-23 14:36:00,85.0,71.9,29.91,ENE,67,2.0,3.0,65,0.00,,,0.00,WeatherCatV1.13B119,2013-05-23 19:36:00,
2013-05-23 14:41:00,85.0,71.4,29.92,ESE,116,2.0,4.0,64,0.00,,,0.00,WeatherCatV1.13B119,2013-05-23 19:41:00,
2013-05-23 14:46:00,85.0,71.4,29.92,SE,129,2.0,5.0,64,0.00,,,0.00,WeatherCatV1.13B119,2013-05-23 19:46:00,
2013-05-23 14:51:00,84.8,71.7,29.91,ESE,122,1.0,4.0,65,0.00,,,0.00,WeatherCatV1.13B119,2013-05-23 19:51:00,
2013-05-23 14:56:00,85.1,71.5,29.92,ESE,113,3.0,4.0,64,0.00,,,0.00,WeatherCatV1.13B119,2013-05-23 19:56:00,
2013-05-23 15:01:00,84.8,71.2,29.92,ESE,117,3.0,3.0,64,0.00,,,0.00,WeatherCatV1.13B119,2013-05-23 20:01:00,
2013-05-23 15:06:00,84.7,71.6,29.92,ESE,113,3.0,3.0,65,0.00,,,0.00,WeatherCatV1.13B119,2013-05-23 20:06:00,
2013-05-23 15:11:00,84.5,71.4,29.92,SE,128,4.0,5.0,65,0.00,,,0.00,WeatherCatV1.13B119,2013-05-23 20:11:00,
2013-05-23 15:16:00,84.4,71.3,29.91,SE,129,2.0,4.0,65,0.00,,,0.00,WeatherCatV1.13B119,2013-05-23 20:16:00,
2013-05-23 15:21:00,84.7,71.1,29.91,SE,138,2.0,7.0,64,0.00,,,0.00,WeatherCatV1.13B119,2013-05-23 20:21:00,
2013-05-23 15:26:00,84.9,71.8,29.91,East,83,5.0,5.0,65,0.00,,,0.00,WeatherCatV1.13B119,2013-05-23 20:26:00,
2013-05-23 15:31:00,84.9,71.3,29.91,SSE,148,1.0,4.0,64,0.00,,,0.00,WeatherCatV1.13B119,2013-05-23 20:31:00,
2013-05-23 15:36:00,84.9,72.2,29.91,East,90,1.0,3.0,66,0.00,,,0.00,WeatherCatV1.13B119,2013-05-23 20:36:00,
2013-05-23 15:41:00,85.1,72.0,29.91,ESE,114,1.0,2.0,65,0.00,,,0.00,WeatherCatV1.13B119,2013-05-23 20:41:00,
2013-05-23 15:46:00,85.3,71.2,29.90,SE,128,4.0,5.0,63,0.00,,,0.00,WeatherCatV1.13B119,2013-05-23 20:46:00,
2013-05-23 15:51:00,85.4,71.3,29.90,ESE,110,1.0,3.0,63,0.00,,,0.00,WeatherCatV1.13B119,2013-05-23 20:51:00,
2013-05-23 15:56:00,86.0,71.9,29.90,ESE,104,0.0,2.0,63,0.00,,,0.00,WeatherCatV1.13B119,2013-05-23 20:56:00,
2013-05-23 16:01:00,86.7,72.1,29.90,East,83,1.0,4.0,62,0.00,,,0.00,WeatherCatV1.13B119,2013-05-23 21:01:00,
2013-05-23 16:06:00,86.5,71.9,29.89,WNW,291,0.0,3.0,62,0.00,,,0.00,WeatherCatV1.13B119,2013-05-23 21:06:00,
2013-05-23 16:11:00,86.6,72.0,29.89,ESE,113,1.0,5.0,62,0.00,,,0.00,WeatherCatV1.13B119,2013-05-23 21:11:00,
2013-05-23 16:16:00,87.0,71.9,29.89,ESE,116,2.0,4.0,61,0.00,,,0.00,WeatherCatV1.13B119,2013-05-23 21:16:00,
2013-05-23 16:21:00,87.3,72.2,29.88,East,91,4.0,5.0,61,0.00,,,0.00,WeatherCatV1.13B119,2013-05-23 21:21:00,
2013-05-23 16:26:00,87.5,72.4,29.88,ESE,113,1.0,4.0,61,0.00,,,0.00,WeatherCatV1.13B119,2013-05-23 21:26:00,
2013-05-23 16:31:00,87.5,72.8,29.87,East,79,0.0,2.0,62,0.00,,,0.00,WeatherCatV1.13B119,2013-05-23 21:31:00,
2013-05-23 16:36:00,88.0,72.8,29.87,SSE,159,1.0,6.0,61,0.00,,,0.00,WeatherCatV1.13B119,2013-05-23 21:36:00,
2013-05-23 16:41:00,89.1,72.4,29.87,ESE,120,6.0,6.0,58,0.00,,,0.00,WeatherCatV1.13B119,2013-05-23 21:41:00,
2013-05-23 16:46:00,88.8,71.6,29.86,SSE,148,3.0,5.0,57,0.00,,,0.00,WeatherCatV1.13B119,2013-05-23 21:46:00,
2013-05-23 16:51:00,89.1,72.4,29.86,SSW,210,2.0,5.0,58,0.00,,,0.00,WeatherCatV1.13B119,2013-05-23 21:51:00,
2013-05-23 16:56:00,89.4,72.1,29.86,East,101,3.0,3.0,57,0.00,,,0.00,WeatherCatV1.13B119,2013-05-23 21:56:00,
2013-05-23 17:01:00,89.2,71.9,29.86,ENE,63,2.0,5.0,57,0.00,,,0.00,WeatherCatV1.13B119,2013-05-23 22:01:00,
2013-05-23 17:06:00,88.9,71.7,29.85,ESE,111,2.0,6.0,57,0.00,,,0.00,WeatherCatV1.13B119,2013-05-23 22:06:00,
2013-05-23 17:11:00,89.0,71.8,29.85,East,92,5.0,6.0,57,0.00,,,0.00,WeatherCatV1.13B119,2013-05-23 22:11:00,
2013-05-23 17:16:00,89.0,71.2,29.84,ESE,113,2.0,7.0,56,0.00,,,0.00,WeatherCatV1.13B119,2013-05-23 22:16:00,
2013-05-23 17:21:00,89.4,71.6,29.84,ESE,117,2.0,7.0,56,0.00,,,0.00,WeatherCatV1.13B119,2013-05-23 22:21:00,
2013-05-23 17:26:00,89.5,72.2,29.84,SE,145,1.0,3.0,57,0.00,,,0.00,WeatherCatV1.13B119,2013-05-23 22:26:00,
2013-05-23 17:31:00,89.9,72.6,29.83,SE,141,2.0,5.0,57,0.00,,,0.00,WeatherCatV1.13B119,2013-05-23 22:31:00,
2013-05-23 17:36:00,90.1,72.2,29.83,SE,131,3.0,6.0,56,0.00,,,0.00,WeatherCatV1.13B119,2013-05-23 22:36:00,
2013-05-23 17:41:00,89.7,71.3,29.83,ESE,111,5.0,7.0,55,0.00,,,0.00,WeatherCatV1.13B119,2013-05-23 22:41:00,
2013-05-23 17:46:00,89.3,71.0,29.83,SSE,152,3.0,6.0,55,0.00,,,0.00,WeatherCatV1.13B119,2013-05-23 22:46:00,
2013-05-23 17:51:00,89.3,71.0,29.83,ESE,117,3.0,7.0,55,0.00,,,0.00,WeatherCatV1.13B119,2013-05-23 22:51:00,
2013-05-23 17:56:00,89.8,72.0,29.82,ESE,113,3.0,5.0,56,0.00,,,0.00,WeatherCatV1.13B119,2013-05-23 22:56:00,
2013-05-23 18:01:00,89.8,71.4,29.82,NE,56,4.0,5.0,55,0.00,,,0.00,WeatherCatV1.13B119,2013-05-23 23:01:00,
2013-05-23 18:06:00,89.7,71.3,29.82,East,101,4.0,5.0,55,0.00,,,0.00,WeatherCatV1.13B119,2013-05-23 23:06:00,
2013-05-23 18:11:00,89.6,70.7,29.82,ESE,115,2.0,6.0,54,0.00,,,0.00,WeatherCatV1.13B119,2013-05-23 23:11:00,
2013-05-23 18:16:00,89.7,70.8,29.81,ESE,122,3.0,6.0,54,0.00,,,0.00,WeatherCatV1.13B119,2013-05-23 23:16:00,
2013-05-23 18:21:00,89.7,70.8,29.82,ESE,104,7.0,7.0,54,0.00,,,0.00,WeatherCatV1.13B119,2013-05-23 23:21:00,
2013-05-23 18:26:00,89.4,71.1,29.81,ESE,119,5.0,6.0,55,0.00,,,0.00,WeatherCatV1.13B119,2013-05-23 23:26:00,
2013-05-23 18:31:00,89.2,70.9,29.81,SSE,160,3.0,6.0,55,0.00,,,0.00,WeatherCatV1.13B119,2013-05-23 23:31:00,
2013-05-23 18:36:00,89.2,70.9,29.81,ESE,120,3.0,7.0,55,0.00,,,0.00,WeatherCatV1.13B119,2013-05-23 23:36:00,
2013-05-23 18:41:00,89.0,70.7,29.81,East,101,3.0,7.0,55,0.00,,,0.00,WeatherCatV1.13B119,2013-05-23 23:41:00,
2013-05-23 18:46:00,88.6,70.3,29.81,East,97,5.0,6.0,55,0.00,,,0.00,WeatherCatV1.13B119,2013-05-23 23:46:00,
2013-05-23 18:51:00,88.2,70.5,29.81,ESE,115,3.0,3.0,56,0.00,,,0.00,WeatherCatV1.13B119,2013-05-23 23:51:00,
2013-05-23 18:56:00,87.7,70.0,29.81,SE,127,2.0,8.0,56,0.00,,,0.00,WeatherCatV1.13B119,2013-05-23 23:56:00,
2013-05-23 19:01:00,87.4,70.3,29.81,SSE,156,1.0,7.0,57,0.00,,,0.00,WeatherCatV1.13B119,2013-05-24 00:01:00,
2013-05-23 19:06:00,87.3,70.7,29.81,SE,130,1.0,4.0,58,0.00,,,0.00,WeatherCatV1.13B119,2013-05-24 00:06:00,
2013-05-23 19:11:00,87.1,71.0,29.82,East,89,4.0,4.0,59,0.00,,,0.00,WeatherCatV1.13B119,2013-05-24 00:11:00,
2013-05-23 19:16:00,87.0,71.4,29.81,ESE,120,3.0,4.0,60,0.00,,,0.00,WeatherCatV1.13B119,2013-05-24 00:16:00,
2013-05-23 19:21:00,86.8,70.7,29.81,South,177,2.0,6.0,59,0.00,,,0.00,WeatherCatV1.13B119,2013-05-24 00:21:00,
2013-05-23 19:26:00,86.5,70.4,29.82,ESE,110,3.0,4.0,59,0.00,,,0.00,WeatherCatV1.13B119,2013-05-24 00:26:00,
2013-05-23 19:31:00,86.3,70.7,29.82,ESE,110,1.0,4.0,60,0.00,,,0.00,WeatherCatV1.13B119,2013-05-24 00:31:00,
2013-05-23 19:36:00,86.1,70.6,29.83,SE,124,3.0,11.0,60,0.00,,,0.00,WeatherCatV1.13B119,2013-05-24 00:36:00,
2013-05-23 19:41:00,85.9,70.4,29.83,ESE,108,2.0,3.0,60,0.00,,,0.00,WeatherCatV1.13B119,2013-05-24 00:41:00,
2013-05-23 19:46:00,85.7,70.7,29.83,East,92,2.0,4.0,61,0.00,,,0.00,WeatherCatV1.13B119,2013-05-24 00:46:00,
2013-05-23 19:51:00,85.6,70.6,29.83,East,99,3.0,3.0,61,0.00,,,0.00,WeatherCatV1.13B119,2013-05-24 00:51:00,
2013-05-23 19:56:00,85.4,70.9,29.83,ESE,122,1.0,4.0,62,0.00,,,0.00,WeatherCatV1.13B119,2013-05-24 00:56:00,
2013-05-23 20:01:00,85.2,70.7,29.83,ESE,109,3.0,5.0,62,0.00,,,0.00,WeatherCatV1.13B119,2013-05-24 01:01:00,
2013-05-23 20:06:00,85.0,71.0,29.83,SE,134,2.0,4.0,63,0.00,,,0.00,WeatherCatV1.13B119,2013-05-24 01:06:00,
2013-05-23 20:11:00,84.7,70.7,29.84,ESE,112,3.0,7.0,63,0.00,,,0.00,WeatherCatV1.13B119,2013-05-24 01:11:00,
2013-05-23 20:16:00,84.6,70.6,29.84,East,101,2.0,4.0,63,0.00,,,0.00,WeatherCatV1.13B119,2013-05-24 01:16:00,
2013-05-23 20:21:00,84.4,70.9,29.85,ESE,105,2.0,4.0,64,0.00,,,0.00,WeatherCatV1.13B119,2013-05-24 01:21:00,
2013-05-23 20:26:00,84.3,70.8,29.85,ESE,114,2.0,3.0,64,0.00,,,0.00,WeatherCatV1.13B119,2013-05-24 01:26:00,
2013-05-23 20:31:00,84.1,70.6,29.86,East,96,2.0,2.0,64,0.00,,,0.00,WeatherCatV1.13B119,2013-05-24 01:31:00,
2013-05-23 20:36:00,84.0,70.5,29.87,SE,129,1.0,2.0,64,0.00,,,0.00,WeatherCatV1.13B119,2013-05-24 01:36:00,
2013-05-23 20:41:00,83.8,70.8,29.87,ESE,105,1.0,2.0,65,0.00,,,0.00,WeatherCatV1.13B119,2013-05-24 01:41:00,
2013-05-23 20:46:00,83.7,70.7,29.87,East,95,3.0,4.0,65,0.00,,,0.00,WeatherCatV1.13B119,2013-05-24 01:46:00,
2013-05-23 20:51:00,83.6,70.6,29.88,SE,127,2.0,3.0,65,0.00,,,0.00,WeatherCatV1.13B119,2013-05-24 01:51:00,
2013-05-23 20:52:00,83.6,70.6,29.88,East,80,2.0,3.0,65,0.00,,,0.00,WeatherCatV1.13B119,2013-05-24 01:52:00,
2013-05-23 20:57:00,83.5,70.5,29.90,ESE,110,2.0,3.0,65,0.00,,,0.00,WeatherCatV1.13B119,2013-05-24 01:57:00,
2013-05-23 21:02:00,83.4,70.8,29.90,ESE,109,0.0,1.0,66,0.00,,,0.00,WeatherCatV1.13B119,2013-05-24 02:02:00,
2013-05-23 21:07:00,83.2,70.6,29.91,ESE,104,0.0,2.0,66,0.00,,,0.00,WeatherCatV1.13B119,2013-05-24 02:07:00,
2013-05-23 21:12:00,82.9,70.8,29.91,East,96,0.0,2.0,67,0.00,,,0.00,WeatherCatV1.13B119,2013-05-24 02:12:00,
2013-05-23 21:17:00,82.8,70.7,29.92,ENE,64,2.0,2.0,67,0.00,,,0.00,WeatherCatV1.13B119,2013-05-24 02:17:00,
2013-05-23 21:22:00,82.7,70.6,29.92,ESE,110,1.0,4.0,67,0.00,,,0.00,WeatherCatV1.13B119,2013-05-24 02:22:00,
2013-05-23 21:27:00,82.6,70.5,29.92,East,96,2.0,3.0,67,0.00,,,0.00,WeatherCatV1.13B119,2013-05-24 02:27:00,
2013-05-23 21:32:00,82.5,70.8,29.92,ESE,113,1.0,1.0,68,0.00,,,0.00,WeatherCatV1.13B119,2013-05-24 02:32:00,
2013-05-23 21:37:00,82.4,70.8,29.92,ESE,114,1.0,1.0,68,0.00,,,0.00,WeatherCatV1.13B119,2013-05-24 02:37:00,
2013-05-23 21:42:00,82.2,71.0,29.93,SE,141,2.0,4.0,69,0.00,,,0.00,WeatherCatV1.13B119,2013-05-24 02:42:00,
2013-05-23 21:47:00,82.0,70.8,29.93,East,94,1.0,3.0,69,0.00,,,0.00,WeatherCatV1.13B119,2013-05-24 02:47:00,
2013-05-23 21:52:00,81.8,70.6,29.93,East,87,1.0,1.0,69,0.00,,,0.00,WeatherCatV1.13B119,2013-05-24 02:52:00,
2013-05-23 21:57:00,81.7,70.9,29.94,East,94,0.0,1.0,70,0.00,,,0.00,WeatherCatV1.13B119,2013-05-24 02:57:00,
2013-05-23 22:02:00,81.5,70.7,29.94,ESE,122,1.0,4.0,70,0.00,,,0.00,WeatherCatV1.13B119,2013-05-24 03:02:00,
2013-05-23 22:07:00,81.4,71.1,29.94,SE,124,0.0,2.0,71,0.00,,,0.00,WeatherCatV1.13B119,2013-05-24 03:07:00,
2013-05-23 22:12:00,81.3,71.0,29.95,ESE,117,0.0,1.0,71,0.00,,,0.00,WeatherCatV1.13B119,2013-05-24 03:12:00,
2013-05-23 22:17:00,81.1,70.8,29.95,SE,135,0.0,0.0,71,0.00,,,0.00,WeatherCatV1.13B119,2013-05-24 03:17:00,
2013-05-23 22:22:00,81.0,71.1,29.95,SE,134,1.0,3.0,72,0.00,,,0.00,WeatherCatV1.13B119,2013-05-24 03:22:00,
2013-05-23 22:27:00,80.8,70.9,29.96,ENE,65,0.0,2.0,72,0.00,,,0.00,WeatherCatV1.13B119,2013-05-24 03:27:00,
2013-05-23 22:32:00,80.9,71.0,29.96,South,176,4.0,4.0,72,0.00,,,0.00,WeatherCatV1.13B119,2013-05-24 03:32:00,
2013-05-23 22:37:00,81.1,71.2,29.97,ESE,110,0.0,3.0,72,0.00,,,0.00,WeatherCatV1.13B119,2013-05-24 03:37:00,
2013-05-23 22:42:00,81.1,71.2,29.97,NNW,335,1.0,1.0,72,0.00,,,0.00,WeatherCatV1.13B119,2013-05-24 03:42:00,
2013-05-23 22:47:00,81.1,71.2,29.97,East,91,1.0,1.0,72,0.00,,,0.00,WeatherCatV1.13B119,2013-05-24 03:47:00,
2013-05-23 22:53:00,81.0,71.1,29.98,ESE,105,1.0,3.0,72,0.00,,,0.00,WeatherCatV1.13B119,2013-05-24 03:53:00,
2013-05-23 22:58:00,81.0,71.1,29.98,East,81,0.0,1.0,72,0.00,,,0.00,WeatherCatV1.13B119,2013-05-24 03:58:00,
2013-05-23 23:01:00,81.0,71.5,29.98,East,93,2.0,2.0,73,0.00,,,0.00,WeatherCatV1.13B119,2013-05-24 04:01:00,
2013-05-23 23:06:00,81.0,71.5,29.98,ESE,122,0.0,1.0,73,0.00,,,0.00,WeatherCatV1.13B119,2013-05-24 04:06:00,
2013-05-23 23:11:00,80.9,71.4,29.98,ESE,115,1.0,1.0,73,0.00,,,0.00,WeatherCatV1.13B119,2013-05-24 04:11:00,
2013-05-23 23:16:00,80.8,71.3,29.97,ESE,120,0.0,1.0,73,0.00,,,0.00,WeatherCatV1.13B119,2013-05-24 04:16:00,
2013-05-23 23:21:00,80.6,71.5,29.97,East,82,0.0,2.0,74,0.00,,,0.00,WeatherCatV1.13B119,2013-05-24 04:21:00,
2013-05-23 23:26:00,80.5,71.4,29.97,East,97,1.0,1.0,74,0.00,,,0.00,WeatherCatV1.13B119,2013-05-24 04:26:00,
2013-05-23 23:31:00,80.3,71.6,29.98,East,96,0.0,1.0,75,0.00,,,0.00,WeatherCatV1.13B119,2013-05-24 04:31:00,
2013-05-23 23:36:00,80.0,71.3,29.97,SE,127,0.0,0.0,75,0.00,,,0.00,WeatherCatV1.13B119,2013-05-24 04:36:00,
2013-05-23 23:41:00,79.9,71.2,29.98,ESE,115,1.0,2.0,75,0.00,,,0.00,WeatherCatV1.13B119,2013-05-24 04:41:00,
2013-05-23 23:46:00,79.7,71.4,29.98,ESE,112,1.0,1.0,76,0.00,,,0.00,WeatherCatV1.13B119,2013-05-24 04:46:00,
2013-05-23 23:51:00,79.6,71.3,29.97,ESE,113,2.0,2.0,76,0.00,,,0.00,WeatherCatV1.13B119,2013-05-24 04:51:00,
2013-05-23 23:56:00,79.4,71.5,29.97,ESE,116,0.0,2.0,77,0.00,,,0.00,WeatherCatV1.13B119,2013-05-24 04:56:00,